User: anonymous   Login
Location: Unspecified
(0.0000°N, 0.0000°E)
Time: 19:03:01
(UTC+00:00)
Language:

MOHAMMED VI-A - Orbit

View from above orbital plane
View from above orbital plane
View from above satellite
View from above satellite

Ground track
Ground track

The orbit is defined by the following mean orbital elements,

1 43005U          26145.65279669 +.00000000 +00000-0 +13680-3 0 00004
2 43005  97.9559 218.2933 0001680 100.4687 259.6713 14.77105155    06
Epoch (UTC): 25 May 2026 15:40:01
Eccentricity: 0.0001680
inclination: 97.9559°
perigee height: 637 km
apogee height: 640 km
right ascension of ascending node: 218.2933°
argument of perigee: 100.4687°
revolutions per day: 14.77105155
mean anomaly at epoch: 259.6713°

The dashed part of the orbit path shows where the satellite is in the earth's shadow,  

DLR